CAPE
1016 1055 1064 1560 1556 1701 1973 2506 2999 3070 3055 3172 3240 3232 3231 3379 3462 3418 3484 3623 3631 3715 3639 3556 3555 3456 3411 3350 3355 3236 3104 3104 3072 3062 3038 3037 2994 2842 2838 2776 2738 2982 2988 2904 2971 3036 3018 2979 2725 3115 3123 3140 2914 2970 2902 2907 3008 2915 2817 2811 2918 2715 2670 2707 2496 2636 2579 2612 2646 2483 2550 2718 2649 2594 2445 2431 2159 2186 2162 1951 1818 1988 1851 1480 2166
1134 1226 1185 1410 1525 1673 2098 2808 3023 2992 2949 3007 3022 3307 3389 3461 3456 3452 3454 3519 3643 3542 3485 3436 3346 3321 3256 3115 3145 3179 3136 3128 3091 3107 3030 2972 2948 2910 2926 2868 2916 2928 2905 2942 2988 3140 3189 3002 3023 2955 3048 2884 2792 2756 2761 2988 2829 2786 2751 2844 2769 2812 2666 2532 2736 2658 2624 2665 2566 2505 2512 2452 2412 2387 2637 2319 2306 2282 2490 2130 1776 1803 1774 1407 1911
1356 1123 1309 1388 1590 1906 2381 2853 2876 2861 2767 3032 3138 3326 3389 3398 3402 3461 3440 3370 3334 3376 3360 3333 3166 3171 3229 3117 3139 3199 3147 3167 3067 2993 2897 2942 2897 2832 2838 2847 2841 2836 2770 2933 3006 3100 3189 3072 2806 2601 2998 2705 2577 2604 2579 2650 2855 2846 2795 2690 2733 2781 2834 2752 2630 2513 2520 2419 2131 2694 2655 2540 2566 2370 2567 2272 2196 2416 2212 2037 2274 1786 1333 1988 1651
1375 1163 1568 1796 1858 2027 2698 2822 2837 2886 2940 3052 3196 3319 3365 3381 3410 3393 3369 3351 3354 3427 3273 3142 3233 3251 3152 3134 3145 3082 2930 2844 2732 2716 2860 2863 2744 2799 2864 2540 2822 2820 2870 2887 2995 2930 2990 2566 2487 3022 3121 3059 2870 2759 2458 2544 2308 2395 2541 2534 2571 2507 2846 2798 2691 2832 3247 2766 2815 2571 2447 2209 2325 2214 2136 2036 2255 2048 1832 2344 1941 1898 2060 2560 2160
1404 1352 1521 1729 1985 2672 2926 2768 2846 2825 2880 3050 3296 3233 3286 3347 3356 3430 3462 3395 3327 3246 3284 3303 3252 3188 3231 3182 2970 2834 2778 2802 2737 2773 2838 3013 3046 3008 2953 2838 2726 2772 2801 2802 2976 2824 2630 2607 2951 2857 2803 2882 2739 2466 2525 2540 2458 2450 2534 2466 2521 2752 2544 2931 2873 2587 2855 2799 2640 2132 1980 1838 2217 2180 2143 2107 2401 2444 1972 1687 1872 1692 2076 2283 2032
1534 1670 1726 1837 2327 2800 2930 2838 2782 2867 2867 3036 3312 3218 3225 3289 3458 3478 3323 3269 3304 3317 3272 3283 3244 3337 3315 3139 3045 2909 2933 2880 2743 2869 3124 3031 2996 2808 2747 2748 2524 2578 2615 2672 2632 2804 2828 2364 2968 2774 2788 3012 3043 2826 2798 2718 2400 2531 2568 2501 2734 2730 2947 2838 2719 2470 2762 2707 2376 1829 1854 1862 1969 2070 2421 2566 1960 1856 2071 1724 1676 2205 2269 2032 1805
1667 1848 1907 2126 2368 2660 2915 2872 2812 2872 2835 3102 3296 3175 3244 3353 3448 3472 3333 3321 3337 3296 3254 3179 3162 3261 3122 3083 3160 2938 2702 2872 2892 2918 3052 3072 2960 2820 2771 2601 2269 2331 2591 2374 2481 2646 2561 2638 2456 3090 2985 2834 2749 2644 2694 2612 2416 2500 2595 2529 2347 2583 2439 2873 2707 2648 2451 1798 1791 1808 1805 1802 1777 1742 2272 2384 2404 2026 2119 2082 1956 2361 2167 1954 1847
1722 1846 2010 2209 2344 2831 2970 2979 2881 2772 2790 3044 3219 3182 3291 3393 3388 3363 3265 3229 3212 3128 3139 3060 3069 3098 3116 3108 3112 2946 2843 2827 3050 3082 3023 2928 2795 2710 2613 2340 2477 2646 2665 2631 2448 2250 2492 2508 2479 2572 2440 2320 2427 2252 2628 2464 2533 2482 2512 2427 2310 2481 2493 2610 2657 2502 2118 1676 1691 1729 1756 1849 1837 1905 2221 2186 2117 2072 2005 2177 2169 2116 2162 2186 2084
1692 1900 2138 2275 2438 2958 3063 2955 2790 2661 2848 3010 3183 3294 3205 3156 3189 3158 3002 2964 3018 2935 2968 2999 2953 2924 2946 2914 2854 2738 2691 2853 2845 2922 2839 2880 2850 2704 2740 2490 2568 2518 2503 2500 2407 2653 2912 2592 2912 2702 2353 2308 2526 2627 2713 2542 2586 2510 2470 2577 2119 2241 2549 2490 2460 2144 1599 1606 1658 1685 1751 1852 1925 1923 2027 1957 1976 2099 1930 1909 2084 2121 2021 1817 1787
1792 1976 2140 2296 2562 2974 2869 2808 2598 2574 2859 3085 3058 3108 3040 3010 3046 2903 2883 2895 2922 2899 2964 2986 2858 2759 2683 2704 2690 2666 2722 2604 2654 2612 2728 2877 2906 2612 2719 2452 2637 2398 2436 2563 2808 2845 2736 2658 2560 2630 2578 2609 2247 2259 2461 2453 2263 2138 2227 2461 2318 2608 2666 2320 2246 2039 1472 1634 1812 1985 2375 2349 1895 1736 2040 2197 2170 2153 2163 2198 2173 1981 1794 1883 1987
1803 1988 2133 2359 2642 2886 2771 2695 2611 2424 2740 3013 3042 2930 2911 2883 2762 2643 2663 2761 2832 2838 2800 2890 2868 2732 2641 2640 2576 2576 2532 2519 2631 2737 2602 2582 2926 2866 2756 2619 2590 2275 2615 2441 2549 2517 2491 2553 2608 2619 2619 2359 2161 2231 2355 2509 2480 2015 2061 2153 2127 2630 2522 2296 1921 1683 1782 1861 1961 2053 2193 2367 1722 1809 1854 1882 1999 1963 1882 1821 1915 1952 1973 1938 2005
1777 1943 2149 2397 2862 2825 2484 2526 2880 3008 2959 2854 2917 2797 2824 2728 2643 2469 2749 2888 2818 2738 2739 2743 2727 2743 2688 2226 2176 2308 2603 2611 2607 2519 2483 2736 2885 2738 2763 2634 2540 2589 2513 2519 2519 2582 2528 2571 2703 2564 2303 2341 2310 2331 2188 2252 2449 2254 2178 2115 2077 2489 2514 2356 1698 1682 1638 1614 1712 1752 1727 1685 1742 2039 2159 2062 1943 1946 1944 1970 1897 1854 1926 1946 2055
1753 1883 2109 2500 2572 2387 2249 2365 2572 2750 2642 2943 2764 2758 2688 2648 2506 2446 2785 2709 2583 2541 2633 2719 2748 2656 2402 2326 2326 2552 2552 2414 2266 2387 2699 2632 2876 2751 2581 2566 2390 2744 2631 2752 2581 2539 2581 2433 2545 2490 2370 2350 2347 2312 2416 2537 2539 2365 2317 2162 2169 2547 2530 2072 1573 1556 1623 1655 1709 1768 1812 1861 1982 2289 2146 2191 2235 2042 2046 2005 1978 2077 2175 2143 2013
1706 1825 2126 2486 2532 2213 2271 2411 2475 2566 2420 2822 2616 2651 2591 2553 2476 2436 2547 2443 2282 2573 2652 2805 2502 2374 2397 2356 2110 2406 2410 2213 2313 2534 2790 2677 2479 2657 2647 2513 2301 2337 2481 2669 2635 2627 2563 2380 2395 2276 2210 2173 2725 2646 2655 2466 2125 2281 2494 2352 2443 2656 2534 2140 1793 1601 1659 1713 1901 1762 1871 2068 2207 2427 2272 2244 2186 2112 2000 2050 2110 2155 2018 1988 1970
1612 1855 2254 2449 2446 2181 2220 2493 2693 2301 2523 2546 2613 2494 2380 2444 2577 2380 2342 2230 2451 2696 2595 2644 2248 2301 2270 2462 2130 2271 2433 2216 2400 2470 2310 2351 2313 2243 2570 2406 2272 2288 2375 2448 2426 2428 2388 2517 2702 2614 2614 2420 2628 2488 2435 2457 2216 2285 2438 2352 2316 2458 2167 1438 1389 1577 1639 1689 1742 1766 1826 1930 2305 2428 2250 2152 2107 2061 2072 2077 2044 2029 2079 2016 1999
1648 2042 2286 2350 2294 2381 2333 2509 2463 2434 2560 2488 2445 2326 2374 2530 2479 2329 2376 2411 2563 2570 2481 2473 2330 2364 2404 2403 2426 2545 2457 2202 2491 2333 2228 2285 2329 2274 2506 2172 2161 2504 2490 2537 2545 2537 2476 2619 2684 2689 2654 2540 2697 2628 2608 2676 2612 2421 2389 2329 2368 2448 2128 1644 1289 1483 1612 1662 1746 1975 1846 1969 2410 2342 2180 2063 2110 1958 1880 1890 1941 1964 2011 2035 1983
1853 2087 2126 2248 2325 2366 2476 2512 2446 2468 2385 2361 2223 2424 2499 2494 2420 2413 2534 2349 2510 2447 2491 2524 2337 2505 2568 2556 2484 2600 2525 2391 2210 2214 2164 2517 2165 2170 2459 2476 2547 2495 2507 2528 2481 2558 2718 2596 2694 2458 2270 2393 2527 2649 2276 2516 2398 2350 2462 2409 2412 2490 2180 1627 1175 1324 1517 1742 1750 1829 1902 2001 2510 2149 2137 2157 2051 2072 2033 1996 2028 1982 1998 2006 2030
1835 1933 2056 2220 2286 2309 2287 2322 2232 2147 2086 2356 2450 2525 2488 2427 2477 2423 2626 2532 2453 2382 2452 2573 2302 2614 2613 2704 2320 2386 2497 2538 2527 2452 2208 2354 2462 2380 2362 2495 2538 2492 2517 2516 2488 2585 2602 2277 2410 2506 2436 2331 2409 2292 2388 2460 2456 2288 2320 2399 2496 2422 2210 1707 1172 1278 1656 1925 1778 2188 1984 2130 2415 2132 2182 2145 2153 2045 2028 1993 1946 1913 1904 1869 1933
1744 1897 2026 2131 2175 2229 2204 2213 2152 2046 1990 2084 2165 2540 2406 2437 2385 2494 2423 2602 2493 2490 2706 2717 2721 2570 2654 2306 2092 2388 2526 2508 2502 2370 2321 2359 2480 2392 2557 2665 2558 2396 2440 2500 2455 2606 2653 2286 2551 2425 2409 2416 2432 2472 2572 2495 2236 2187 2184 2284 2390 2401 2322 1622 1358 1515 1633 1571 1764 1871 1980 2333 2202 2205 2167 2126 2056 2063 2009 2072 1994 1876 1830 1613 1715
1718 1876 1979 2044 2114 2161 2129 2106 2094 2080 2114 2165 2241 2200 2277 2448 2446 2418 2564 2592 2571 2617 2703 2520 2097 2373 2178 2479 2329 2607 2503 2521 2542 2372 2053 2591 2429 2374 2597 2610 2462 2432 2428 2505 2631 2593 2533 2656 2472 2317 2390 2288 2288 2400 2514 2508 2437 2357 1859 1918 2220 2592 1425 1389 1405 1351 1328 1533 1683 1808 2207 2168 2208 2180 2202 2065 2076 2220 2158 2043 1959 1949 1992 1847 1946
1715 1832 1931 2005 2056 2096 2082 2065 2088 2084 2085 2124 2125 2040 2233 2441 2570 2475 2615 2595 2582 2214 2121 2085 2231 2135 2006 2083 2351 2382 2374 2231 2562 2426 2300 2748 2378 2397 2495 2643 2586 2560 2546 2644 2730 2516 2363 2423 2254 2299 2307 2277 2204 2231 1962 2269 2304 2585 2715 2449 2459 1360 1369 1333 1258 1390 1498 1789 1848 1844 2254 2124 2102 2177 2179 2287 2223 1997 2046 2062 2180 2183 2023 1992 1875
1555 1727 1874 1902 2000 2041 2060 2017 1983 2005 2002 2047 2016 1955 1967 2163 1786 2147 2584 2498 2234 2410 2202 1945 2235 2135 2120 2248 2434 2856 2081 2162 2418 2528 2798 2332 2403 2612 2635 2579 2649 2690 2745 2738 2751 2745 2765 2142 2194 2401 2164 2142 2228 2283 2378 2270 2101 2177 2429 2386 1450 1374 1295 1182 1231 1416 1490 1406 1866 1820 2286 1782 1736 1822 1877 1904 1835 1797 1800 1978 2085 2092 2164 2118 2117
1375 1596 1746 1805 1950 1965 1970 1941 1910 1872 1895 1939 1934 1865 1809 1825 2045 2154 2244 2428 2248 2556 2220 2216 1879 1898 2003 2300 2419 2090 2120 2347 2444 2738 2875 2492 2613 2514 2655 2677 2667 2711 2749 2632 2700 2791 2418 2151 2026 2206 2158 2313 2299 2268 2122 2208 2139 2547 2148 1450 1380 1296 1212 1206 1237 1298 1316 1411 1484 1985 1776 1783 1968 1871 1866 1846 2056 1845 1752 2154 2094 2083 2122 1939 1916
1237 1413 1592 1726 1838 1834 1846 1794 1769 1744 1854 1893 1878 1784 1867 1918 2020 1963 1910 2043 2111 2088 1916 1949 1865 1910 2042 1984 1983 2107 2018 2131 2376 2462 2562 2288 2291 2479 2566 2742 2719 2549 2590 2996 2732 2502 2426 2277 2004 2240 3170 2389 2110 2143 2149 1921 1959 1778 1410 1405 1448 1322 1260 1146 1144 1183 1292 1864 1804 2163 2161 2099 2225 2277 2276 2330 2315 2244 2206 2088 1950 1974 2021 2005 1991
1204 1317 1490 1657 1710 1727 1731 1678 1609 1667 1804 1850 1795 1756 1919 2023 1948 1865 1953 1992 1969 1867 1866 1894 1837 1896 1923 1886 1880 2059 1928 2145 2093 2194 2119 2099 2110 2287 2372 2471 2472 2752 3121 2576 2666 2837 2714 2654 2722 2775 2477 2475 2143 1967 2110 1953 1360 1416 1357 1407 1475 1376 1262 1161 1074 1145 1338 1569 1969 2368 2475 2341 2282 2245 2338 2162 2314 2308 2256 2163 2156 2122 2079 2064 2022
1151 1244 1374 1496 1596 1663 1634 1568 1554 1678 1756 1745 1680 2046 1939 1946 1876 1802 1878 1827 1794 1790 1803 1808 1883 1901 1868 1953 2033 1844 1952 2064 2122 2004 2047 2107 2114 2265 2386 2454 2504 2498 2551 2174 2357 2342 2230 2326 2500 2492 2508 2498 2331 2082 2000 2158 1581 1194 1276 1358 1519 1361 1230 1175 1230 1288 1330 1497 2226 2515 2550 2507 2166 2232 2236 2365 2202 2202 2206 2209 2175 2082 2202 2118 2036
1124 1148 1266 1347 1503 1612 1566 1499 1526 1646 1691 1633 1788 1972 1868 1853 1855 1842 1762 1718 1696 1743 1750 1846 2000 1970 1816 2099 1846 1848 1940 1990 1968 1919 2003 2037 2080 2193 2252 2258 2266 2304 2320 1915 1983 2167 2330 2293 2268 2311 2389 2155 2080 2185 2114 1792 1820 1200 1089 1318 1513 1410 1217 1271 1310 1338 1334 1510 2316 2556 2268 2131 2161 2099 2162 2305 2308 2297 2262 2209 2139 2184 2207 2149 2004
1070 1090 1148 1265 1404 1533 1490 1454 1510 1606 1603 1617 1825 1821 1806 1776 1811 2383 1884 1798 1645 1681 1691 1774 1997 2030 1886 2334 2189 1796 1866 1805 1791 1883 1934 1940 1978 1923 1955 1917 1948 2064 2228 2174 2002 2012 2109 2211 2260 2314 2403 2265 2170 2012 1938 1784 1899 1416 1006 1297 1508 1464 1315 1298 1350 1370 1421 1638 2049 2133 2062 1928 2094 2136 2198 2232 2405 2243 2260 2127 2138 2154 2134 2077 2038
995 1039 1081 1213 1350 1428 1414 1452 1482 1529 1557 1601 1773 1754 1747 1749 1926 2025 1701 2378 1596 1569 1682 1705 1866 2053 2152 2407 2296 1709 1687 1647 1724 1777 1829 1820 1787 1837 1895 1930 1910 1951 1973 2241 2275 2252 2048 1961 2159 2256 2238 2226 2164 2148 2134 1991 1661 1751 997 1314 1512 1570 1432 1360 1356 1428 1555 1726 1920 2131 2104 2091 2135 2139 2212 2239 2152 2203 2193 2131 2103 2045 2046 1904 1847
919 951 1011 1180 1262 1320 1408 1456 1448 1464 1520 1553 1701 1698 1701 1743 1860 1900 1677 2197 1580 1510 1697 1648 1703 1930 1985 2203 2073 1702 1674 1675 1801 1852 1806 1772 1793 1892 1979 2096 2058 2121 2159 2089 2094 1954 1956 2045 2136 1611 1450 1474 1622 1656 1922 1907 1652 1694 1134 1204 1493 1543 1481 1346 1371 1422 1572 1715 1844 2227 2280 2204 2271 2226 2279 2162 2058 2131 2111 2108 2164 2079 1888 1781 1744
912 910 1004 1165 1261 1317 1403 1452 1394 1487 1476 1497 1630 1602 1665 1698 1782 1845 1689 2092 1570 1490 1660 1664 1588 1747 1918 2052 1964 1831 1670 1712 1881 1922 1848 1830 1782 1876 1991 2130 2166 2155 2142 1963 2014 1924 1812 1861 1806 1824 2148 2219 2209 1918 1776 1660 1605 1332 1374 1070 1433 1473 1438 1348 1353 1406 1530 1691 1838 1923 2431 2284 2438 2402 2250 2219 2189 2151 2157 2125 2098 2020 1832 1804 1773
991 925 1037 1171 1240 1337 1381 1427 1361 1406 1375 1421 1537 1504 1606 1614 1718 1806 1690 1923 1607 1474 1584 1626 1504 1574 1888 1948 1992 1774 2400 1678 1816 1858 1870 1905 1834 1767 1772 1843 2051 2067 1879 1407 1301 1646 2063 1853 2091 2313 2425 2694 2078 1546 1676 1518 1533 1177 1068 900 1361 1395 1392 1360 1349 1399 1553 1672 1831 1902 2157 2485 2547 2492 2401 2304 2296 2266 2242 2160 1983 2052 1873 1965 1937
1052 1021 1112 1195 1268 1339 1364 1354 1326 1394 1278 1294 1424 1385 1485 1513 1614 1756 1661 1810 1665 1470 1485 1486 1286 1512 1726 1883 1998 1808 2494 1702 1753 1812 2576 1822 1827 1610 1268 1363 1332 1104 1554 1708 1669 2198 2255 2267 2462 2484 2399 2141 1763 1138 1368 1355 1386 1141 709 650 1223 1394 1444 1305 1325 1420 1562 1685 1819 1870 2076 2321 2519 2569 2498 2469 2452 2380 2326 2357 2057 2020 2130 1881 1951
1094 1120 1180 1231 1272 1336 1346 1306 1317 1402 1183 1200 1313 1236 1326 1371 1485 1670 1618 1699 1618 1424 1390 1328 1139 1510 1706 1840 1884 1861 2294 1823 1876 1878 1760 1698 1619 1806 1486 1186 1299 1757 2318 2466 2304 2299 2328 2293 2419 1865 3327 1877 1543 1382 1219 1122 1101 857 776 676 1070 1366 1488 1425 1303 1383 1537 1695 1822 1945 2163 2249 2412 2455 2529 2525 2530 2450 2473 2432 2394 2338 2250 2131 2155
1084 1144 1219 1270 1284 1308 1305 1281 1305 1341 1364 1139 1201 1104 1156 1202 1349 1536 1575 1597 1514 1384 1397 1356 1059 1386 1668 1736 1749 1735 2113 1886 1940 1955 1706 1520 1503 1802 1811 1639 1933 2464 2571 2232 2316 2156 2086 2335 2823 1705 1801 2016 1809 2632 1171 962 784 579 744 759 776 1195 1480 1476 1352 1317 1442 1593 1757 1938 2164 2260 2346 2404 2393 2452 2799 2663 2714 2555 2587 2523 2461 2380 2371
1029 1115 1212 1274 1283 1267 1275 1287 1300 1298 1212 1113 1126 1047 1084 1148 1277 1404 1498 1548 1455 1329 1386 1442 1212 1449 1670 1568 1577 1658 1922 1843 1811 1610 1498 1559 1723 1857 1851 1973 2456 2410 2321 2068 2120 1980 2336 2596 2895 1984 1336 1812 1670 894 1084 984 742 592 707 738 711 1142 1399 1509 1420 1316 1274 1377 1567 1729 1980 2140 2252 2345 2544 2407 2456 2524 2694 2698 2663 2689 2659 2628 2529
946 1045 1185 1279 1252 1223 1514 1283 1294 1311 1189 1104 1072 1028 1090 1199 1224 1314 1329 1435 1436 1262 1302 1334 1375 1690 1610 1440 1307 1507 2095 2146 1973 1585 1380 1720 1896 1886 1987 2293 2367 2309 2130 1907 1788 2075 2334 2744 2430 2898 2083 1732 1042 936 744 701 709 609 697 722 653 1025 1315 1525 1465 1402 1294 1254 1391 1475 1594 1781 2066 2618 2425 2462 2384 2419 2475 2558 2693 2775 2833 2739 2714
877 1004 1178 1297 1200 1186 1328 1297 1314 1284 1259 1163 1026 1009 1088 1161 1117 1111 1126 1198 1322 1229 1158 1343 1639 1840 1591 1311 1204 1736 2317 2386 2250 1720 1501 1818 1921 1962 2239 2340 2210 2071 1932 1706 1594 1955 2435 2554 2456 2803 2458 2003 1754 1508 1298 900 513 608 698 673 626 739 1189 1449 1515 2050 1364 1294 1290 1352 1411 1497 1679 1976 2275 2338 2356 2278 2265 2383 2616 2811 2809 2755 2774
781 968 1160 1293 1173 1128 1252 1251 1257 1250 1298 1211 993 984 1100 1074 969 935 925 934 1055 1054 1143 1609 1860 1919 1705 1500 1582 2096 2682 2431 2255 1761 1605 2204 1932 2105 2283 2277 2239 2138 1918 1755 1777 3003 2779 2669 2740 2182 2044 2710 2844 2505 2191 2040 1161 493 691 658 637 637 984 1232 1489 1990 1568 1471 1432 1452 1314 1431 1497 1671 1844 2085 2196 2192 2127 2084 2064 2127 2272 2356 2630
678 916 1127 1249 1152 1084 1164 1188 1182 1212 1300 1205 984 978 1015 942 856 813 807 803 820 1114 1473 1751 1960 1962 1937 1909 1961 2218 2465 2351 2132 1808 1692 2136 1924 2171 2323 2337 2328 2186 2038 1881 2149 2428 2576 2576 2410 2851 1908 2072 2349 2316 1920 716 741 467 922 612 620 604 588 822 1070 1451 1687 1595 1556 1802 1554 1433 1512 1588 1710 1839 1957 2027 1987 1896 1898 1858 1949 2047 2218
590 836 1041 1159 1083 1008 1053 1072 1114 1200 1244 1125 986 921 908 807 696 599 664 798 972 1205 1588 1856 1955 2003 2070 2178 2251 2242 2301 2215 2438 1912 1785 2437 1954 2242 2454 2354 2256 2148 2066 2020 2250 2762 2786 2469 2760 3342 2633 1617 1506 1588 1098 22 172 156 361 569 540 529 1226 1200 808 1036 1459 1597 1565 1578 1709 1776 1653 1623 1690 1795 1907 1913 1866 1742 1608 1618 1730 1787 1869
507 726 922 1037 996 962 945 918 963 1080 1079 1007 944 890 776 650 604 543 650 830 1110 1372 1513 1811 1936 2000 2142 2306 2377 2228 2161 2215 2595 2017 1841 2049 1920 2214 2399 2447 2230 1972 2067 2126 2474 3592 3122 2534 2475 2150 2320 2184 1693 2122 1453 30 62 56 208 187 172 14 1443 1455 899 822 984 1232 1418 1486 1636 1786 1786 1761 1732 1856 1968 1947 1887 1762 1546 1448 1467 1566 1646
399 608 778 881 896 880 818 813 776 862 965 967 795 739 106 405 528 438 578 869 1115 1314 1455 1720 1903 2001 2168 2325 2394 2216 2135 2286 2544 2410 2163 2100 1879 2116 2237 2181 2028 2130 2169 1921 2934 3070 2700 2530 2408 1989 2120 2282 2678 2451 1357 1325 298 330 282 158 61 105 279 48 267 534 569 718 894 1157 1487 1699 1746 1793 1772 1831 1959 2014 1974 1887 1752 1610 1452 1362 1404
324 508 634 734 776 811 810 815 704 772 897 890 436 66 116 154 56 0 400 748 1071 1328 1461 1635 1861 2087 2203 2282 2370 2250 2187 2341 2477 2582 2496 2240 1835 1978 2096 2263 2102 2311 1875 1847 2557 2902 2766 2366 2128 2596 2207 1703 1493 1638 2752 1240 764 51 244 60 2 15 74 54 6 0 102 348 536 620 1178 1420 1572 1619 1661 1744 1850 1941 1994 1972 1941 1839 1726 1430 1219
251 338 517 579 667 787 855 923 771 742 825 836 677 31 412 220 49 0 70 358 532 1139 1424 1532 1817 2216 2238 2244 2320 2330 2316 2390 2528 2664 2582 2375 2061 1801 1796 2272 2305 2312 2095 2107 2284 2598 2643 2051 1861 2292 2607 1707 1495 1560 1652 2201 1192 382 141 27 56 93 18 0 24 72 24 228 0 304 677 1028 1160 1245 1314 1412 1600 1775 1876 1909 1924 1922 1846 1600 1305
194 290 442 496 607 742 835 969 928 818 846 881 742 228 394 181 44 6 27 221 394 684 1126 1383 1734 2160 2351 2267 2275 2389 2510 2523 2622 2736 2670 2367 2244 2074 1747 2140 2480 2299 2202 2395 2416 2465 2420 2004 1830 1871 2382 2628 1883 1505 1711 1620 2173 2790 1149 40 33 67 79 456 160 237 0 849 634 15 103 539 766 888 879 981 1164 1395 1611 1738 1778 1832 1851 1765 1556
136 218 180 426 557 670 755 875 914 919 979 924 749 330 239 121 67 4 0 65 320 664 856 1242 1681 2044 2281 2292 2313 2430 2625 2694 2751 2757 2708 2432 2067 1880 1702 1851 2359 2459 2737 2323 2440 2460 2262 1893 1716 1773 2076 2638 2201 1550 1454 1551 1326 1576 2038 1814 1161 842 478 557 65 0 12 0 2 26 1 20 35 221 217 303 501 818 1090 1382 1532 1550 1610 1692 1672
91 138 128 236 397 621 704 783 806 833 901 864 352 310 236 107 66 4 0 0 192 476 925 1286 1640 1913 2166 2250 2331 2438 2652 2766 2839 2846 2720 2578 2224 1786 1956 1864 2097 2485 2658 2393 2214 2284 2271 2055 1993 1582 1889 2637 1897 1280 1152 1222 1177 1038 2698 2828 1537 1963 1142 849 495 6 20 12 12 4 0 0 7 0 12 28 113 148 254 622 988 1186 1235 1257 1330
35 86 92 199 376 579 651 677 687 742 785 790 457 318 385 144 70 3 0 0 1 274 998 1447 1674 1914 1992 2170 2316 2428 2563 2758 2869 2898 2823 2646 2772 2284 2124 2193 2299 2274 3221 2664 2369 2292 2280 2142 2120 2056 1928 2124 2328 2018 1265 994 1113 1055 1371 816 756 760 397 315 216 212 177 37 0 0 1 2 11 2 2 40 104 82 68 100 238 714 794 796 793
6 80 71 147 338 412 598 617 533 611 722 740 612 338 391 344 81 12 0 0 96 58 775 1400 1672 1839 1839 2000 2291 2380 2472 2594 2740 2763 2723 2600 2519 2690 2340 2221 2496 2471 2971 2869 2563 2433 2370 2156 2053 2007 2018 2108 2259 2311 1730 962 1250 1441 1726 1362 756 729 14 21 18 1 0 0 8 113 8 78 23 1 0 7 29 59 26 27 107 332 558 569 557
128 16 43 108 296 375 386 406 370 417 657 708 707 370 368 307 143 55 10 0 0 0 639 1234 1597 1744 1733 1784 2122 2301 2382 2464 2507 2563 2586 2408 2182 2548 2586 2318 2350 2805 2990 2932 2733 2476 2394 2269 1981 2022 2235 2330 2093 2417 2602 2240 1890 2048 2120 1847 1031 358 7 42 8 59 115 57 0 4 218 212 2 27 14 6 164 22 4 4 53 122 242 442 567
Wind_Speed
5 3 4 8 10 12 11 14 13 13 12 11 9 9 8 7 5 5 5 5 6 6 6 6 6 6 6 6 6 6 6 5 5 5 4 3 3 3 3 2 2 1 1 2 3 5 6 7 7 8 8 8 9 10 11 12 13 13 11 11 10 9 9 9 9 8 9 9 8 7 6 5 5 6 7 8 7 8 7 7 3 2 3 5 5
7 4 3 4 9 10 12 13 12 12 12 11 10 9 8 6 4 4 4 4 4 4 4 4 3 3 3 3 4 4 3 2 2 1 2 2 3 3 2 2 1 1 1 2 4 6 7 7 8 7 8 10 10 10 11 11 12 13 12 11 10 9 9 9 9 8 9 9 8 7 6 5 5 6 7 6 5 5 5 8 7 2 7 6 6
5 5 4 5 10 10 12 11 11 11 11 10 9 9 7 5 4 3 2 2 2 1 1 0 1 2 3 3 3 2 1 1 1 1 0 2 2 2 2 1 1 2 3 4 5 7 7 7 7 6 7 8 10 10 12 10 10 10 10 8 9 9 9 10 10 10 10 10 10 8 7 5 5 5 5 5 4 4 5 7 8 7 4 4 4
8 5 6 10 15 14 11 11 10 9 8 8 8 7 6 5 3 2 2 2 2 2 1 1 1 1 2 3 3 3 2 2 2 2 1 1 1 1 2 2 2 3 4 6 6 6 5 5 5 6 7 7 9 11 11 10 10 8 9 7 8 8 9 9 9 9 12 10 10 8 6 6 1 3 1 2 3 3 5 6 9 7 8 4 5
8 7 8 8 9 9 10 10 9 8 7 6 5 4 3 3 3 3 3 3 3 3 3 2 1 1 2 3 3 2 2 2 2 2 1 1 1 2 2 2 3 4 4 4 5 5 5 5 5 7 8 8 8 10 12 13 10 10 10 8 8 7 9 9 9 10 11 10 10 8 7 6 7 3 3 4 3 3 6 5 8 7 6 6 6
6 7 7 6 5 5 8 9 8 8 6 5 4 3 3 3 4 5 5 5 4 4 3 2 1 1 2 4 4 3 2 1 1 1 1 1 2 2 3 3 5 3 6 6 5 5 3 5 7 8 9 9 9 9 9 10 10 8 7 6 6 7 8 9 9 11 10 10 10 9 9 9 8 7 4 4 6 4 7 8 8 6 6 6 6
6 4 4 4 4 4 6 8 8 7 6 5 4 4 4 4 5 5 5 4 4 3 2 2 2 2 3 4 5 4 2 1 1 1 1 1 2 3 3 4 4 3 4 5 4 2 4 4 6 7 8 9 9 9 8 8 8 7 7 6 6 7 7 7 9 11 10 9 10 11 11 10 8 8 3 3 3 5 6 6 6 6 4 4 5
4 4 4 4 4 4 6 7 8 8 7 6 5 4 4 4 4 4 3 3 3 3 3 2 2 2 3 3 4 4 3 2 1 0 1 2 3 3 3 4 4 4 3 3 4 5 3 5 6 7 7 8 9 8 8 8 8 7 7 6 6 6 6 7 8 8 9 10 11 11 11 12 11 10 3 2 2 4 5 5 4 4 4 4 4
5 4 3 4 4 6 5 6 8 8 8 7 5 4 3 3 2 2 2 2 3 3 3 2 2 1 2 3 3 3 3 1 0 1 2 2 3 3 3 3 4 4 4 2 3 3 2 3 4 5 7 8 9 9 9 8 7 7 6 5 4 3 5 6 7 8 9 11 11 11 11 12 11 10 2 1 2 3 3 2 2 4 4 3 4
4 3 3 4 4 6 8 8 8 8 7 6 5 4 3 2 2 1 1 2 3 3 3 3 2 2 2 2 2 2 2 1 0 2 3 3 4 4 3 3 4 4 3 2 1 2 3 3 5 6 7 9 9 8 7 8 7 6 6 6 5 3 3 3 5 7 10 11 11 11 11 10 13 12 4 0 2 3 4 4 5 3 3 4 5
4 3 4 4 4 7 8 7 8 8 7 6 5 4 3 2 1 1 2 3 3 4 4 3 3 3 3 3 2 2 1 0 1 1 2 3 4 3 3 3 3 3 2 2 1 2 2 3 5 5 6 6 7 7 7 6 5 5 5 3 4 3 3 3 8 12 12 12 12 14 10 10 14 12 3 1 2 3 4 4 4 4 4 4 5
4 3 4 5 6 7 6 6 6 6 6 6 5 4 3 2 2 2 2 3 4 4 4 4 4 4 5 5 4 3 2 2 1 2 3 3 3 3 3 2 2 1 1 1 0 0 1 2 3 4 6 7 7 7 7 6 4 5 7 7 5 3 2 4 11 13 14 14 14 15 16 15 12 7 1 2 3 3 4 4 3 3 4 4 4
3 3 4 5 4 6 6 7 6 6 7 6 5 4 3 2 2 2 2 3 4 5 5 4 5 6 6 5 5 4 4 3 3 3 4 4 4 4 3 2 1 1 2 2 1 1 1 2 3 3 5 6 8 8 7 7 7 6 5 5 5 2 1 4 12 12 14 15 16 17 16 14 11 3 2 2 3 2 2 2 2 2 3 3 3
4 3 4 5 6 6 9 8 7 5 7 5 4 3 3 3 3 3 4 4 5 6 5 5 7 7 7 6 6 5 6 3 5 4 5 4 4 4 3 3 2 2 1 2 2 2 2 2 2 3 3 4 5 6 6 7 6 5 5 5 4 2 0 6 9 13 14 15 16 16 15 12 10 5 2 2 2 2 2 2 2 2 3 3 4
5 3 4 5 5 4 7 7 7 8 7 5 4 4 4 4 3 4 5 4 6 6 6 7 7 7 7 6 6 6 6 6 6 5 4 2 3 4 4 3 2 4 3 3 2 1 1 2 2 2 3 3 4 4 5 5 5 5 5 4 3 1 2 10 11 12 13 15 16 15 14 11 4 4 2 2 2 3 3 3 2 3 3 4 4
3 1 3 5 5 5 6 5 7 6 5 4 4 5 5 4 5 5 5 7 7 7 7 7 7 7 7 7 6 7 8 7 7 5 4 3 5 6 5 5 5 3 3 3 2 1 1 1 2 2 2 3 3 4 5 5 5 6 5 4 3 2 1 5 9 11 12 13 14 14 13 10 3 2 1 2 2 2 3 2 2 3 4 4 5
2 1 3 4 5 7 6 6 4 4 4 4 4 5 6 6 6 5 6 8 8 8 8 8 7 8 8 7 7 8 9 9 8 6 6 4 7 7 5 5 4 3 3 3 3 2 2 0 0 1 2 3 4 5 6 7 7 7 6 5 4 3 2 3 7 9 9 10 11 12 12 10 4 2 2 2 2 2 2 2 2 3 4 4 5
1 2 4 5 7 8 8 7 6 5 5 3 5 6 6 6 6 6 7 8 8 8 8 9 8 9 8 8 10 10 11 10 9 8 6 5 4 5 5 5 4 4 4 4 4 4 3 2 2 3 3 3 5 6 7 8 8 8 6 5 4 3 1 2 7 8 8 8 9 9 10 4 1 2 2 3 2 2 2 3 3 4 4 4 5
1 3 5 6 8 9 8 9 8 8 6 7 7 6 7 6 6 7 9 9 8 9 9 9 9 9 10 11 12 12 11 11 10 9 6 7 5 5 6 6 5 5 4 4 5 5 4 4 5 5 4 4 5 7 8 8 10 11 10 9 7 5 3 4 8 8 8 9 9 8 7 3 3 2 3 3 2 2 2 2 3 4 5 4 6
3 4 5 7 8 9 10 9 8 8 7 7 8 8 5 7 7 9 10 9 10 10 11 10 10 10 11 13 13 13 12 12 11 11 9 7 7 9 8 8 7 7 6 5 6 6 5 4 5 6 5 4 6 8 8 8 10 13 10 8 8 4 5 7 8 9 9 9 9 9 4 2 3 3 3 3 3 3 3 4 3 4 4 6 8
5 5 6 7 7 8 9 8 9 8 8 8 9 8 6 7 7 9 10 10 10 10 9 8 10 10 13 14 12 15 15 14 13 14 11 12 10 10 10 9 9 9 8 7 6 6 4 3 5 7 5 4 5 7 8 11 12 11 9 9 5 8 8 8 8 8 10 10 10 9 6 4 3 3 3 3 3 3 3 3 4 5 7 9 11
5 5 6 5 6 8 8 8 9 8 8 9 10 9 8 8 9 11 11 10 9 10 9 12 12 14 12 13 16 15 15 15 14 14 17 15 13 11 10 10 10 9 8 7 6 6 6 3 7 7 6 5 4 11 11 8 8 9 7 5 9 11 11 10 10 10 10 10 11 12 9 5 4 4 3 4 4 4 5 7 8 9 11 12 12
5 5 5 5 6 8 9 8 9 9 8 10 10 9 9 10 10 9 11 11 11 12 12 12 14 14 15 15 16 16 16 17 17 17 17 13 14 11 11 10 11 10 9 8 8 7 8 7 6 7 8 6 9 10 10 11 11 6 6 10 12 12 13 13 13 11 11 12 12 10 8 6 5 4 6 6 7 8 10 12 13 13 14 14 15
5 5 4 5 5 7 8 9 8 8 8 10 10 10 10 10 9 10 11 11 12 12 12 12 13 14 15 15 15 16 17 18 16 15 13 16 15 12 11 11 11 11 10 11 10 10 9 7 6 8 8 10 9 10 10 11 11 11 11 12 13 14 15 16 15 14 14 14 14 10 10 10 10 11 11 12 13 13 14 15 16 16 17 17 16
4 3 5 5 5 7 8 9 9 8 8 10 10 10 10 9 9 9 10 10 11 12 12 12 13 14 15 15 16 16 17 17 17 16 17 16 16 15 15 15 15 15 11 13 12 12 10 10 12 11 10 10 9 10 11 11 12 12 12 14 13 15 16 17 17 16 17 16 17 14 15 15 16 16 16 16 16 16 16 17 18 19 19 18 17
3 4 5 5 5 6 7 8 9 9 9 10 10 10 9 9 9 9 9 10 10 11 12 12 13 14 15 16 16 15 16 17 17 17 17 16 15 14 14 15 15 15 14 13 13 12 12 12 12 12 13 11 10 12 13 13 13 12 13 13 13 15 16 17 17 17 18 18 19 18 18 18 17 17 18 17 18 18 19 20 20 21 20 19 18
4 4 4 6 5 6 7 7 8 10 10 11 11 10 10 9 9 9 8 9 10 10 12 13 14 15 15 16 14 15 15 15 16 17 16 16 15 15 15 16 16 16 15 15 15 14 13 14 14 15 14 14 13 13 13 14 13 13 13 13 14 15 16 17 17 17 18 18 20 18 19 18 18 18 18 19 20 21 21 22 22 21 21 20 19
2 3 4 5 5 5 7 6 8 10 12 12 11 10 10 10 9 9 8 9 9 10 12 13 15 15 15 16 16 15 15 15 16 16 17 16 16 16 17 16 17 17 16 16 17 17 16 17 18 18 17 17 16 15 14 13 13 12 13 13 14 15 16 17 17 17 18 18 19 18 19 18 18 19 20 20 22 22 22 22 21 21 20 20 20
3 4 4 5 5 5 5 6 8 10 12 11 10 10 10 10 10 9 9 10 10 11 12 14 15 16 16 15 15 14 15 14 15 16 15 16 16 16 16 17 17 18 17 18 19 20 20 20 20 20 19 19 18 16 15 14 13 13 14 13 14 14 16 17 17 17 17 18 19 20 19 19 20 20 21 21 22 22 21 21 20 20 20 20 20
3 3 4 4 6 5 5 6 8 10 11 10 10 9 9 9 10 9 9 10 12 12 13 14 15 15 15 15 14 13 14 14 14 14 14 15 15 15 16 17 18 18 17 20 20 20 21 20 20 20 20 20 19 18 15 15 14 14 14 13 14 14 16 17 17 17 18 18 20 21 20 21 21 21 22 22 22 21 21 20 20 19 20 20 20
1 3 3 3 5 5 6 6 9 10 11 10 9 9 9 10 10 9 9 10 12 12 13 14 14 15 15 14 13 13 12 13 13 13 13 14 14 15 16 17 18 19 18 20 19 20 20 20 19 20 20 20 21 19 17 16 15 14 14 13 14 14 16 17 17 18 18 20 21 22 21 21 22 22 22 22 22 21 20 19 19 19 19 20 20
2 4 3 2 3 5 5 7 9 9 9 9 9 8 9 9 10 9 10 10 10 11 13 14 15 14 14 13 12 13 12 12 12 12 13 13 14 14 15 16 18 19 19 20 21 20 19 19 19 19 20 19 19 19 18 17 17 16 15 15 14 15 17 18 19 19 19 20 21 22 22 21 22 22 22 22 21 20 19 19 19 19 19 20 21
2 2 2 2 2 5 6 7 9 9 9 9 8 8 8 9 10 10 10 10 10 11 12 13 14 14 13 12 11 11 11 10 11 12 12 13 13 13 14 15 17 18 18 18 20 19 17 17 18 17 18 17 17 19 18 18 17 17 17 17 16 17 17 19 20 19 20 20 20 21 21 21 21 22 22 21 21 20 19 19 19 19 20 20 21
2 2 1 3 3 8 9 9 10 9 8 9 9 8 9 9 10 10 9 9 10 11 13 12 13 12 12 11 10 10 9 10 10 11 11 12 13 13 14 15 16 16 16 15 16 16 16 15 16 15 17 17 18 18 18 18 19 17 18 18 18 18 17 19 20 20 19 19 19 19 20 21 21 20 19 22 21 20 20 20 20 20 20 21 21
4 2 3 3 2 8 10 10 10 9 8 9 8 8 8 9 10 11 10 9 10 11 12 12 12 11 11 11 10 9 8 8 9 9 11 12 14 14 13 15 14 14 14 14 13 14 14 14 15 15 15 15 16 16 18 19 18 18 18 18 19 18 18 19 19 19 19 18 17 18 19 19 20 19 18 17 19 21 20 20 20 20 21 21 22
2 2 2 1 2 7 10 10 10 10 9 9 8 8 8 9 10 11 10 10 10 11 12 12 11 10 9 9 10 9 8 8 7 8 10 12 13 12 13 12 13 13 13 13 13 13 13 14 15 15 15 14 14 15 16 17 17 17 16 17 18 17 17 18 19 19 18 16 17 17 18 18 18 18 18 16 16 17 22 21 21 22 22 22 23
2 1 2 1 1 7 10 9 9 9 9 9 8 8 8 8 9 10 10 9 9 11 11 11 10 9 8 8 8 9 7 7 7 7 9 11 11 11 11 11 12 11 11 12 12 12 12 13 14 13 13 14 14 15 15 16 16 17 16 16 16 16 17 18 18 17 15 16 16 17 17 17 17 18 16 16 16 17 18 22 22 23 23 24 24
1 1 2 3 2 6 11 10 11 10 10 9 8 7 7 7 8 9 10 9 9 10 10 9 10 9 7 8 7 7 6 6 7 7 9 11 10 9 10 10 11 11 11 11 12 12 13 13 14 14 13 13 14 14 16 16 16 15 16 16 16 16 17 17 16 15 14 15 15 16 17 16 16 16 16 16 16 16 17 20 24 24 25 24 24
2 2 1 1 1 7 11 12 12 11 10 10 9 8 8 9 9 8 9 9 9 9 8 8 9 8 7 7 7 6 6 6 7 8 9 10 9 10 10 11 10 11 12 12 12 12 12 12 12 14 14 14 14 15 15 16 14 14 14 16 15 17 17 16 15 15 14 15 14 15 14 15 15 15 15 15 16 16 17 18 19 18 20 25 25
2 1 1 1 1 7 12 13 14 13 12 11 10 8 8 8 8 10 9 9 8 7 8 8 7 7 7 6 6 6 6 6 7 8 9 9 9 10 11 11 11 11 11 11 11 11 11 11 12 12 14 14 13 12 13 11 11 11 12 12 14 16 16 15 15 15 14 14 14 12 14 14 14 14 14 15 15 16 17 17 19 19 18 21 25
3 2 2 1 1 7 11 11 14 14 12 12 11 9 9 9 11 8 8 8 7 7 7 7 7 7 6 5 5 5 6 6 7 8 8 9 9 10 11 12 12 11 11 12 11 10 11 10 10 11 11 11 12 11 9 nan 7 9 11 11 11 12 12 12 15 14 14 14 13 13 13 13 14 13 14 13 14 16 16 17 18 18 18 18 20
3 2 2 3 2 9 10 12 16 15 13 12 11 10 10 8 9 9 10 8 8 7 7 7 7 6 5 5 5 5 6 6 7 8 8 8 9 11 12 13 12 12 12 12 11 11 10 10 10 11 11 9 10 10 9 nan nan nan 8 10 12 nan 10 9 12 13 14 15 15 13 12 13 14 14 13 14 15 16 17 16 16 17 18 18 19
5 3 2 3 3 9 11 14 16 15 13 12 11 8 9 8 8 9 8 10 10 7 5 5 5 5 5 5 5 5 5 6 7 8 7 8 10 10 12 12 13 13 12 13 12 11 11 10 9 9 10 9 9 9 8 8 8 7 7 7 nan 9 13 nan 11 12 14 15 14 13 12 12 15 13 12 13 16 17 17 16 17 17 18 18 19
5 3 3 4 4 9 12 15 17 15 14 12 10 nan 7 8 nan nan 7 6 7 9 8 7 6 6 6 6 6 5 5 6 7 8 8 8 9 10 11 12 13 13 12 12 12 13 12 11 9 9 8 8 8 9 7 7 6 nan 7 nan nan nan nan nan nan nan 13 15 14 14 11 11 13 13 11 15 18 18 18 17 18 18 18 18 18
4 3 2 3 4 6 11 15 18 15 14 12 9 nan 8 8 nan nan nan 11 11 7 8 8 6 6 6 6 7 6 6 7 7 7 7 8 9 10 10 12 12 13 12 11 12 13 12 10 9 8 8 7 8 8 8 7 7 7 5 nan nan nan nan nan nan nan nan 13 nan 14 11 10 13 14 13 16 17 18 19 18 18 17 17 18 18
6 3 3 3 3 7 11 16 19 17 14 11 9 9 7 6 nan nan nan 10 9 7 6 5 5 6 6 7 6 6 6 7 7 6 7 8 9 9 9 9 11 12 12 11 11 11 12 11 10 8 8 8 7 7 8 8 6 6 6 nan nan nan nan 12 11 15 nan 15 16 nan 13 12 12 14 14 16 18 19 18 20 18 18 17 17 18
6 5 5 3 3 5 8 14 18 17 15 13 10 9 9 9 nan nan nan nan 6 9 8 6 4 6 6 6 7 6 6 6 6 6 6 8 8 9 9 9 9 10 10 9 10 11 11 10 8 7 9 7 6 7 8 8 7 5 6 6 7 8 6 8 nan nan nan nan nan nan nan nan nan 12 14 16 17 18 19 18 18 18 17 17 17
nan 5 5 4 3 4 7 12 17 16 15 13 11 9 8 9 nan nan nan nan 7 7 7 7 7 6 5 6 7 7 6 6 6 6 6 6 7 8 8 8 9 9 9 10 11 11 10 9 8 8 7 7 6 6 8 6 4 8 6 7 7 8 8 10 11 nan nan nan nan nan nan nan nan nan nan nan 16 17 19 18 18 17 17 17 16
nan nan nan 5 4 4 6 12 14 14 14 11 10 10 9 9 nan nan nan nan nan 8 8 8 7 7 6 7 7 7 7 6 6 5 5 5 6 7 8 8 8 9 9 10 10 9 9 9 8 7 8 8 7 6 5 7 5 8 7 9 8 8 9 11 11 12 13 nan nan nan nan nan nan nan nan nan 16 nan nan 17 16 17 16 16 15
nan nan nan 6 6 5 6 10 13 14 13 11 9 9 9 9 nan nan nan nan nan nan 10 7 8 7 7 8 8 7 7 6 6 6 5 5 5 6 7 8 8 8 9 9 9 9 9 9 8 8 7 7 6 5 7 7 7 7 7 10 10 10 nan nan nan nan nan nan nan 16 nan nan nan nan nan nan nan nan nan nan 15 16 16 15 14
8 nan nan 4 5 5 4 7 10 14 13 10 9 7 8 9 6 nan nan nan nan nan 10 9 8 9 7 8 8 7 7 6 6 6 5 5 4 4 6 8 8 8 9 9 9 10 9 9 8 6 6 7 6 6 7 7 7 8 9 10 11 9 nan nan nan nan 15 nan nan nan 17 15 nan nan nan nan 17 nan nan nan nan 15 15 14 14
Wind_Direction
76 30 31 17 342 356 25 0 336 343 342 340 335 332 332 324 308 290 278 261 250 239 233 227 225 232 238 247 255 262 265 268 266 266 268 269 261 257 257 263 286 294 321 328 333 325 326 325 337 335 325 312 307 304 305 299 298 295 297 303 301 294 291 298 298 285 275 270 266 272 283 294 310 307 295 283 270 274 287 281 308 42 64 44 347
34 29 33 22 2 17 23 341 338 339 337 337 335 337 332 323 309 286 268 251 237 230 229 224 217 219 225 235 248 261 268 269 262 253 263 258 250 241 251 272 275 288 315 336 334 328 338 342 346 335 318 312 312 312 305 306 302 300 305 305 300 292 285 282 277 275 271 267 262 267 275 291 314 315 301 293 282 273 286 317 317 53 80 9 338
351 350 13 18 20 26 11 332 336 337 336 334 335 335 331 327 313 297 282 271 269 262 266 241 206 188 188 195 193 186 186 110 89 86 197 249 248 252 273 298 320 341 342 336 333 336 343 350 342 332 323 322 317 325 320 304 284 290 289 289 297 289 273 266 260 252 252 255 252 249 257 277 298 302 299 302 314 302 310 312 309 314 45 3 327
338 4 22 20 8 8 349 336 337 338 340 339 335 334 331 324 322 318 329 342 355 359 18 43 110 173 176 169 158 144 135 121 112 112 133 217 274 299 315 318 324 343 343 336 339 344 347 341 347 336 337 339 336 332 314 312 315 315 307 306 284 274 266 264 264 257 250 249 232 201 146 132 171 288 323 281 280 320 304 304 311 331 333 308 325
341 359 26 31 16 356 339 338 342 344 344 346 343 336 332 335 343 358 5 12 12 15 32 33 49 174 158 154 141 136 135 133 123 142 155 199 288 294 300 303 310 324 322 324 331 335 337 334 340 345 353 354 348 340 333 331 331 329 320 302 279 273 271 268 265 260 250 236 215 178 148 148 132 215 288 298 248 244 278 286 308 321 310 311 326
352 4 20 37 36 4 342 342 344 346 354 357 355 353 2 6 8 9 11 15 18 27 33 62 101 135 168 167 164 158 137 127 103 82 70 354 284 291 287 286 297 325 318 330 344 320 320 340 354 356 357 356 353 350 344 335 331 323 310 287 274 272 264 261 258 247 234 219 198 153 143 135 128 128 273 275 310 328 312 329 316 308 293 309 317
345 15 25 43 49 24 349 347 347 351 358 4 10 11 22 21 14 11 10 18 29 43 45 75 128 168 174 177 168 153 140 119 96 72 8 257 262 266 273 285 290 305 305 316 298 283 309 347 348 3 351 354 354 352 348 336 325 316 300 291 274 262 256 251 242 230 211 175 153 147 140 139 128 99 252 262 280 295 295 304 311 301 304 310 316
349 21 30 54 78 21 358 356 352 354 2 2 9 16 28 28 22 9 12 31 40 46 46 57 110 160 175 171 160 157 154 146 114 175 273 267 274 268 272 275 282 292 310 321 316 322 346 339 346 349 336 341 348 352 356 345 331 319 308 304 291 276 274 254 236 223 200 154 147 145 141 135 132 127 197 253 302 312 321 319 315 301 301 314 324
353 19 39 64 67 358 2 1 355 354 358 358 1 5 15 19 16 17 16 50 45 46 60 82 95 128 160 171 158 153 166 165 188 308 298 297 287 282 283 297 308 316 312 298 311 326 316 294 301 317 325 332 336 353 358 358 349 337 316 302 307 294 277 252 221 203 156 144 142 143 143 140 140 129 127 325 325 323 336 14 356 316 310 324 333
358 29 51 88 76 0 0 359 3 354 355 352 355 352 353 353 1 11 24 54 59 61 62 77 96 118 144 150 141 157 144 104 328 293 305 311 306 307 312 317 304 297 289 322 289 286 277 288 309 321 326 337 339 354 356 4 4 342 324 329 329 328 287 239 202 166 140 138 140 138 135 137 129 120 110 338 331 356 13 23 59 48 36 340 345
354 36 70 78 57 5 359 3 8 356 352 354 355 350 346 347 2 44 48 48 64 70 67 63 83 88 90 101 110 93 71 66 327 298 310 328 326 330 331 324 324 309 320 323 324 260 272 302 312 318 328 322 336 345 356 356 359 342 329 0 346 319 276 187 153 135 137 140 141 136 136 138 124 116 113 60 23 18 9 6 2 354 341 348 351
358 49 79 90 20 357 353 5 15 352 359 360 353 348 338 347 8 23 38 79 85 80 69 71 60 62 63 70 85 79 59 37 28 335 41 26 8 1 358 347 335 339 19 18 317 327 306 317 320 330 327 334 340 348 355 1 2 1 348 357 2 313 230 166 133 134 134 136 137 134 131 128 125 118 136 54 18 360 352 357 359 347 355 2 350
1 52 81 93 85 347 355 9 6 4 6 355 349 341 340 358 16 31 54 92 101 94 82 62 56 54 54 61 80 104 91 68 52 37 41 43 33 30 25 16 30 27 33 41 35 19 345 344 324 332 338 340 352 5 1 11 10 9 357 356 341 331 145 142 124 130 131 133 135 135 131 129 124 109 61 22 9 353 349 350 359 4 4 358 347
355 67 92 103 109 7 4 5 356 11 12 350 344 348 4 13 23 30 41 46 60 66 67 65 54 51 55 61 63 64 74 81 78 56 55 55 45 46 47 57 54 42 62 42 40 19 4 343 317 328 344 349 352 358 5 9 10 357 357 355 344 336 51 128 129 126 129 132 132 134 133 129 125 124 84 29 359 347 357 356 5 4 359 354 350
351 41 101 116 109 94 24 5 355 8 6 349 352 6 19 28 32 37 35 28 41 50 51 56 55 58 56 60 67 76 75 60 60 59 53 76 78 60 66 70 69 45 35 44 39 28 6 335 323 332 338 341 346 357 7 13 8 354 350 349 349 333 170 127 128 127 131 134 136 136 135 128 124 116 65 23 2 357 354 6 9 2 360 358 351
343 42 111 123 122 111 102 23 1 11 355 357 3 18 24 31 33 36 27 29 38 45 47 49 50 57 61 59 61 72 70 59 65 52 56 16 78 74 61 56 48 58 56 63 69 64 22 324 317 334 346 347 355 12 17 18 17 9 0 355 340 320 266 143 134 132 135 140 138 137 135 125 118 93 50 6 350 354 9 0 358 2 4 359 342
333 106 121 128 125 126 119 116 94 7 8 7 16 26 29 28 31 25 27 34 40 42 48 49 50 55 59 59 60 67 66 63 59 53 53 35 30 48 55 60 65 54 56 62 70 82 85 171 29 28 42 29 19 22 26 27 26 21 13 5 347 323 283 180 139 133 138 137 137 139 141 129 113 68 8 357 351 352 8 3 354 12 14 4 353
349 119 136 140 140 133 130 127 122 126 125 68 33 30 31 30 27 26 32 38 41 48 54 56 58 61 64 63 60 62 65 66 67 67 69 73 80 70 61 64 63 54 53 64 78 92 108 144 106 110 85 47 27 29 33 31 30 32 31 27 6 340 323 174 139 134 135 142 143 136 133 126 109 31 2 359 9 3 0 7 8 18 16 10 18
84 130 141 143 139 134 133 135 134 134 138 131 117 75 34 33 35 43 43 43 50 53 58 63 63 64 63 64 60 61 66 69 70 71 80 81 87 88 79 82 79 70 63 72 81 92 102 101 130 120 89 62 32 28 34 39 40 33 32 29 10 5 345 128 128 132 138 143 141 140 126 119 88 32 14 19 19 14 7 4 19 22 23 38 57
104 126 132 143 140 136 139 138 134 136 135 128 119 116 65 39 48 53 53 56 58 61 60 61 67 67 63 68 65 74 76 83 71 86 72 82 92 95 84 83 82 77 74 79 88 96 102 125 118 103 77 43 33 28 35 38 45 44 28 30 27 9 96 109 120 127 128 128 133 130 125 98 60 49 31 24 23 8 10 17 25 41 50 63 80
93 115 130 138 141 136 136 135 134 131 130 127 124 126 88 62 77 67 58 63 68 69 75 77 71 80 80 72 78 104 105 104 107 105 88 100 88 81 82 79 81 81 81 85 93 102 105 88 75 78 86 52 53 53 38 37 44 49 31 23 26 75 80 93 105 113 118 120 124 125 121 104 78 64 40 33 25 24 39 49 68 76 82 85 85
70 101 119 121 141 137 131 134 135 131 130 126 120 117 106 87 105 106 109 95 85 85 95 99 91 97 79 96 105 101 104 105 102 94 106 96 93 83 84 84 84 86 90 95 98 103 95 56 70 67 71 73 85 106 99 69 40 44 41 47 73 73 76 80 89 99 110 115 117 112 101 93 85 71 48 38 41 65 84 92 94 94 90 85 83
57 92 116 106 138 137 131 130 131 129 130 126 122 117 107 113 111 115 110 102 99 105 109 106 109 102 104 103 105 108 106 106 102 99 102 93 95 91 88 89 92 92 95 93 90 85 77 58 45 66 73 85 104 104 110 112 101 89 94 84 77 76 77 79 84 88 96 103 108 103 106 102 95 80 83 84 84 89 95 97 96 93 89 86 85
51 74 109 125 133 135 127 129 126 128 131 130 128 127 120 116 115 111 109 109 111 110 110 108 105 104 106 107 107 108 108 107 92 89 99 108 106 98 89 87 87 86 83 90 78 66 66 69 52 68 94 96 99 105 108 105 98 95 90 86 78 75 76 78 78 81 88 94 101 94 98 93 94 92 91 94 95 94 93 93 92 90 88 88 89
74 91 123 120 130 135 131 130 131 134 136 132 130 125 120 119 114 109 109 109 111 112 110 110 108 108 110 109 106 106 108 110 105 107 110 109 111 114 109 104 100 96 91 87 87 84 86 84 86 88 95 97 98 98 99 96 92 87 87 86 80 77 75 77 77 78 85 91 97 89 92 92 92 91 90 90 90 90 91 91 91 89 89 88 87
94 78 97 120 124 134 130 133 135 137 136 132 127 119 114 110 109 108 110 111 110 110 111 110 112 110 111 108 109 108 106 104 103 103 106 105 107 106 102 98 94 90 85 80 77 75 74 78 79 85 93 96 95 97 97 91 87 87 88 90 86 80 77 76 76 78 81 86 93 86 89 92 90 91 91 89 89 89 90 91 90 90 88 87 86
77 78 102 125 133 132 129 133 135 139 139 137 132 127 117 112 111 107 106 106 108 111 111 114 114 113 110 107 103 102 99 98 97 100 100 103 99 99 94 91 87 83 82 77 75 75 77 77 79 82 88 94 95 95 94 95 90 88 90 94 92 85 82 80 80 80 83 84 90 79 84 85 86 88 89 89 90 91 91 91 90 89 89 88 87
93 73 87 118 124 108 122 125 137 138 139 136 134 129 125 118 110 107 113 103 108 111 112 112 116 116 111 107 104 98 92 91 92 94 95 98 96 94 93 89 86 83 82 79 81 83 83 82 82 85 86 87 91 93 92 92 94 95 90 94 95 86 83 81 78 79 81 85 90 80 80 80 83 87 89 90 91 91 91 90 90 91 90 91 89
50 55 72 103 119 113 116 119 134 137 139 136 132 132 128 123 117 116 110 108 112 112 114 116 117 117 113 108 104 98 97 91 88 88 91 92 94 95 94 91 87 85 83 84 83 84 81 81 82 83 83 83 84 85 89 93 96 96 94 94 95 89 85 82 80 80 84 89 92 88 80 83 87 90 92 94 93 92 92 92 92 91 91 89 88
48 48 48 97 130 126 107 116 133 139 138 135 134 130 125 120 116 113 110 115 113 116 119 117 117 116 113 112 102 98 91 83 83 87 85 88 91 94 95 94 91 89 84 84 86 87 86 85 85 85 85 85 83 81 82 86 92 97 98 97 95 90 88 86 86 86 89 95 97 97 82 88 91 94 95 95 95 94 94 93 92 91 90 89 88
42 54 53 87 132 138 119 132 143 142 141 132 127 122 121 115 113 115 110 114 115 118 118 118 116 114 115 115 106 100 94 89 83 83 86 86 90 93 95 99 100 96 95 93 94 90 92 90 89 88 87 86 82 81 79 82 88 93 98 97 95 95 91 93 94 96 97 99 102 102 101 88 92 94 95 94 94 93 92 92 91 90 90 90 87
37 51 66 85 133 140 130 141 150 148 139 131 125 116 110 111 113 113 107 116 116 116 116 117 116 116 119 117 111 101 95 88 83 82 83 86 91 93 98 100 99 101 100 99 98 95 94 95 96 95 94 90 88 82 82 81 86 89 96 97 97 92 90 93 94 96 98 99 99 101 105 101 90 91 91 91 91 90 90 88 89 89 89 87 86
132 58 55 48 101 153 148 149 160 153 138 130 119 111 111 114 110 109 111 117 115 117 113 112 114 118 121 123 113 101 97 84 82 80 86 89 96 100 102 101 103 103 101 97 97 100 101 104 106 104 103 98 92 88 85 84 85 89 93 94 91 90 89 92 92 93 92 94 95 99 104 105 105 91 88 89 86 86 86 85 86 87 87 86 85
168 131 82 49 134 164 164 162 164 155 140 138 125 116 111 114 114 115 115 120 119 115 113 115 117 118 124 124 114 101 98 90 83 83 87 93 100 105 106 108 108 108 107 105 105 109 109 107 104 102 98 99 95 90 86 85 86 89 90 93 92 90 90 91 92 90 91 92 94 99 100 105 106 107 104 88 86 85 82 82 82 82 83 83 83
174 120 39 29 128 167 170 164 167 162 147 140 123 116 118 117 119 119 116 116 122 118 118 118 116 117 124 123 118 109 103 91 86 79 87 94 102 108 111 111 115 118 118 117 112 112 106 102 99 91 87 93 98 97 86 86 85 83 86 88 88 91 93 93 94 94 93 95 98 98 101 102 104 105 104 106 94 85 85 82 81 81 82 82 83
123 89 63 23 118 169 169 167 172 166 151 141 129 119 118 121 123 118 118 117 120 120 119 115 115 119 120 122 118 110 105 92 82 82 85 93 100 105 109 119 120 124 125 120 114 110 108 106 100 94 96 101 94 101 90 84 86 88 87 84 86 88 89 93 93 95 96 98 99 100 100 101 103 104 101 101 100 97 85 85 83 82 82 82 82
177 98 56 357 138 168 169 166 171 168 156 145 137 131 133 131 127 118 113 117 119 119 122 122 118 117 119 115 112 103 103 94 84 82 86 94 99 105 110 114 119 121 122 122 119 115 110 104 102 101 94 94 104 101 94 77 81 84 84 82 81 83 84 85 90 93 98 97 99 101 101 100 102 96 99 96 94 95 94 87 85 83 81 81 82
214 43 47 360 2 174 169 164 171 172 163 154 143 133 142 146 135 126 122 114 115 121 123 123 117 118 120 113 111 106 104 97 89 85 88 94 100 105 111 113 120 126 127 128 121 122 118 110 109 108 102 95 97 96 95 83 75 78 80 79 79 77 78 81 85 88 87 90 93 93 93 96 95 94 93 93 92 92 93 92 86 84 83 84 86
211 10 54 30 207 178 172 166 172 172 167 164 155 152 168 165 150 142 127 120 127 128 125 122 120 123 117 119 118 110 106 97 91 88 89 99 106 109 107 110 120 126 131 131 130 126 122 123 118 113 108 95 92 91 84 82 76 75 74 78 79 75 75 81 81 79 79 80 84 88 89 87 87 87 86 87 90 92 92 92 92 93 92 91 94
229 277 344 268 183 178 174 172 170 170 174 170 165 166 178 175 160 159 150 134 136 136 130 126 128 123 125 127 119 109 103 95 99 101 100 105 102 100 102 106 109 117 122 124 126 128 123 124 127 123 116 108 103 91 87 86 99 94 88 87 87 85 83 78 76 77 81 83 83 89 86 89 86 88 88 87 88 90 88 90 89 91 94 95 93
236 298 296 294 181 177 179 169 170 172 173 172 169 171 178 184 173 157 147 142 145 145 143 146 137 134 133 125 115 103 99 105 113 114 105 103 97 98 96 96 100 104 109 112 119 122 122 124 128 126 122 113 105 101 97 nan 77 100 108 101 96 92 88 83 84 86 84 85 85 84 89 90 90 91 92 94 92 90 87 86 88 91 91 92 92
219 260 309 320 203 184 175 173 175 173 171 172 173 171 176 182 178 160 166 158 163 154 147 149 138 133 128 116 110 107 101 101 111 116 115 105 98 92 89 88 93 96 106 116 121 126 129 132 135 129 127 114 106 108 105 nan nan nan 80 96 112 nan 102 86 84 89 87 87 80 77 82 87 91 91 95 97 96 92 91 91 93 93 93 91 89
300 306 331 310 228 186 177 176 173 176 174 174 181 178 176 186 185 169 170 164 153 140 129 130 139 120 113 113 116 109 99 101 112 119 119 112 96 91 89 90 92 95 103 106 116 121 124 124 125 123 125 126 117 108 111 96 88 88 83 88 nan 109 114 nan 111 103 93 89 85 80 77 83 89 92 96 101 99 97 97 97 97 97 96 93 92
307 304 324 333 236 189 182 178 172 176 180 175 179 nan 181 183 nan nan 166 161 145 145 147 160 147 147 126 124 126 113 101 105 118 125 129 117 104 96 99 96 92 94 91 96 105 107 114 116 119 121 122 123 126 112 116 98 82 nan 86 nan nan nan nan nan nan nan 104 98 88 83 78 83 90 98 102 100 99 101 102 102 99 97 96 95 94
326 308 304 314 220 205 187 179 173 173 181 180 181 nan 191 191 nan nan nan 178 175 164 163 152 141 132 137 131 106 108 108 114 124 128 130 117 113 108 100 96 95 94 93 93 95 94 100 106 107 112 116 113 109 109 107 105 101 90 48 nan nan nan nan nan nan nan nan 112 nan 92 88 86 91 94 99 102 105 104 105 104 101 99 97 95 91
332 302 282 311 259 215 197 184 176 174 179 179 185 190 180 179 nan nan nan 176 178 161 122 108 129 129 109 112 122 109 110 122 130 135 133 128 114 107 99 93 93 95 93 93 100 104 102 103 98 99 110 117 113 107 105 105 103 97 61 nan nan nan nan 102 113 115 nan 114 117 nan 97 87 93 101 105 105 102 105 106 104 104 99 98 93 89
331 291 275 301 306 249 209 191 181 175 176 180 184 185 186 178 nan nan nan nan 166 144 135 130 123 121 133 128 119 121 121 124 134 141 133 126 120 109 97 93 94 97 105 104 100 95 94 94 98 95 98 112 118 103 92 98 121 98 75 79 81 86 84 106 nan nan nan nan nan nan nan nan nan 105 105 102 103 107 105 104 103 100 98 93 89
nan 302 283 276 300 270 223 200 189 178 173 182 181 179 191 191 nan nan nan nan 156 145 139 136 140 142 145 132 140 129 130 134 137 136 128 127 122 111 104 101 98 95 96 93 95 97 97 99 89 87 95 99 93 87 91 97 84 98 102 103 103 109 103 111 115 nan nan nan nan nan nan nan nan nan nan nan 100 99 100 101 99 97 93 90 86
nan nan nan 264 254 247 225 207 199 186 176 181 184 179 194 206 nan nan nan nan nan 157 156 156 153 155 148 154 144 138 139 140 138 132 128 129 127 117 111 102 97 92 90 94 100 98 89 86 82 82 80 86 84 99 103 84 87 87 113 112 116 118 118 121 124 131 126 nan nan nan nan nan nan nan nan nan 98 nan nan 92 94 93 89 86 82
nan nan nan 253 249 240 226 212 204 194 183 182 187 188 198 213 nan nan nan nan nan nan 164 154 153 158 154 153 149 147 146 150 144 145 147 139 126 122 110 97 92 91 94 92 99 98 95 89 81 73 78 83 89 86 84 85 81 96 105 108 108 119 nan nan nan nan nan nan nan 120 nan nan nan nan nan nan nan nan nan nan 95 93 89 85 79
318 nan nan 281 255 260 251 221 208 201 192 186 192 195 203 215 208 nan nan nan nan nan 167 156 161 162 156 158 158 150 159 155 160 157 158 152 135 122 104 96 97 93 93 95 91 91 93 91 90 87 84 80 80 84 96 97 99 109 109 103 94 95 nan nan nan nan 128 nan nan nan 123 115 nan nan nan nan 101 nan nan nan nan 92 89 86 79